Escatawpa, MS

2:55 AM CST on February 21, 2017 (GMT -0600)
Lott International

Weather History for KPQL - December, 2012

Change the Weather History Date:

Saturday, December 22, 2012

  Actual Average Record
Temperature  
Mean Temperature 44 °F -  
Max Temperature 62 °F 63 °F 80 °F (2004)
Min Temperature 25 °F 45 °F 22 °F (1989)
Degree Days  
Heating Degree Days 22    
Moisture  
Dew Point 28 °F    
Average Humidity 70    
Maximum Humidity 96    
Minimum Humidity 22    
Precipitation  
Precipitation 0.00 in - - ()
Sea Level Pressure  
Sea Level Pressure 30.35 in    
Wind  
Wind Speed 1 mph (NNE)    
Max Wind Speed 8 mph    
Max Gust Speed -    
Visibility 10 miles    
Events      
Averages and records for this station are not official NWS values.
T = Trace of Precipitation, MM = Missing Value Source: NWS Daily Summary

Daily Weather History Graph

Daily Weather History Graph

Search for Another Location

Airport or City:

Trip Planner

Search our weather history database for the weather conditions in past years. The results will help you decide how hot, cold, wet, or windy it might be!

Date:

Astronomy

Dec. 22, 2012 Rise Set
Actual Time 6:47 AM CST 4:58 PM CST
Civil Twilight 6:21 AM CST 5:24 PM CST
Nautical Twilight 5:51 AM CST 5:55 PM CST
Astronomical Twilight 5:21 AM CST 6:24 PM CST
Moon 1:04 PM CST (12/22) 1:45 AM CST (12/22)
Length of Visible Light 11h 03m
Length of Day
10h 10m
Waxing Gibbous, 74% of the Moon is Illuminated
Dec 22
Waxing Gibbous
Dec 28
Full
Jan 4
Last Quarter
Jan 11
New
Jan 18
First Quarter

Hourly Weather History & Observations

Time (CST) Temp. Windchill Dew Point Humidity Pressure Visibility Wind Dir Wind Speed Gust Speed Precip Events Conditions
12:53 AM 28.0 °F - 25.0 °F 88% 30.37 in 10.0 mi Calm Calm - N/A   Clear
1:53 AM 27.0 °F - 24.1 °F 89% 30.39 in 10.0 mi Calm Calm - N/A   Clear
2:53 AM 26.1 °F - 23.0 °F 88% 30.38 in 10.0 mi Calm Calm - N/A   Clear
3:53 AM 26.1 °F - 24.1 °F 92% 30.37 in 10.0 mi Calm Calm - N/A   Clear
4:53 AM 25.0 °F - 23.0 °F 92% 30.38 in 10.0 mi Calm Calm - N/A   Clear
5:53 AM 25.0 °F - 23.0 °F 92% 30.39 in 10.0 mi Calm Calm - N/A   Clear
6:53 AM 26.1 °F - 24.1 °F 92% 30.41 in 10.0 mi Calm Calm - N/A   Clear
7:53 AM 32.0 °F - 28.9 °F 88% 30.43 in 10.0 mi Calm Calm - N/A   Clear
8:53 AM 43.0 °F 41.3 °F 30.9 °F 62% 30.44 in 10.0 mi NNW 3.5 mph - N/A   Clear
9:53 AM 50.0 °F - 28.0 °F 43% 30.43 in 10.0 mi Variable 4.6 mph - N/A   Clear
10:53 AM 54.0 °F - 23.0 °F 30% 30.41 in 10.0 mi Variable 4.6 mph - N/A   Clear
11:53 AM 57.9 °F - 23.0 °F 26% 30.37 in 10.0 mi NE 5.8 mph - N/A   Clear
12:53 PM 62.1 °F - 23.0 °F 22% 30.34 in 10.0 mi North 5.8 mph - N/A   Clear
1:53 PM 62.1 °F - 23.0 °F 22% 30.31 in 10.0 mi Variable 3.5 mph - N/A   Clear
2:53 PM 59.0 °F - 33.1 °F 38% 30.31 in 10.0 mi South 8.1 mph - N/A   Clear
3:53 PM 55.9 °F - 33.1 °F 42% 30.30 in 10.0 mi South 5.8 mph - N/A   Clear
4:53 PM 52.0 °F - 34.0 °F 50% 30.30 in 10.0 mi Calm Calm - N/A   Clear
6:53 PM 37.9 °F - 34.0 °F 86% 30.30 in 10.0 mi Calm Calm - N/A   Clear
7:53 PM 33.1 °F - 32.0 °F 96% 30.31 in 10.0 mi Calm Calm - N/A   Clear
8:53 PM 34.0 °F - 30.9 °F 89% 30.31 in 10.0 mi Calm Calm - N/A   Clear
9:53 PM 33.1 °F - 30.9 °F 92% 30.30 in 10.0 mi Calm Calm - N/A   Clear
10:53 PM 34.0 °F - 32.0 °F 92% 30.29 in 10.0 mi Calm Calm - N/A   Clear
11:53 PM 33.1 °F - 32.0 °F 96% 30.27 in 10.0 mi Calm Calm - N/A   Clear